Location: Ipswich
(52.0579°N, 1.1528°E)
Time: 21:18:33
(UTC+01:00)

ISS - Pass Details

Date: 08 May 2026
Orbit: 414 x 424 km, 51.6° (Epoch: 15 May)

Event Time Altitude Azimuth Distance (km) Brightness Sun altitude
Exits shadow 03:07:34 23° 260° (W) 953 -2.3 -14.9°
Maximum altitude 03:09:13 39° 205° (SSW) 640 -3.4 -14.7°
Drops below altitude 10° 03:12:22 10° 134° (SE) 1,497 -1.1 -14.4°
Sets 03:14:32 0° 127° (SE) 2,360 0.0 -14.3°
